www.pogodaiklimat.ru

Погода и климат >> Архив погоды >> Россия >> Северная Осетия >> Владикавказ


АРХИВ ПОГОДЫ в Владикавказе

Время (UTC), дата Ветер
(напр.,м/с)
 
Видим.   Явления Облачность Т
(С)
Тd
(С)
f
(%)
Тe
(С)
Тes
(С)
Комфортность P
(гПа)
Po
(гПа)
Тmin
(С)
Tmax
(С)
R
(мм)
R24
(мм)
S
(см)
06 9.12 штиль 0 10 км 10/10 300 м
[Sc]
+0.6 -0.9 90 -1 -1 по сезону 1022.5 937.3
09 9.12 С 1 20 км 8/8 600 м
[Sc]
+4.6 -0.7 68 +4 +4 тепло 1020.0 936.1
12 9.12 СВ 1 20 км 9/9 600 м
[Sc]
+3.3 -1.1 73 +2 +2 по сезону 1019.5 935.3
15 9.12 СЗ 1 10 км 10/10 600 м
[Sc]
+2.2 -0.2 84 +1 +1 по сезону 1020.1 935.5 +5.5
18 9.12 штиль 0 10 км 9/9 600 м
[Sc]
+1.1 -1.5 83 0 0 по сезону 1019.4 934.6
21 9.12 штиль 0 10 км 10/10 600 м
[Sc]
+0.8 -1.7 83 -0 -0 по сезону 1018.7 933.8
00 10.12 ЮЗ 1 10 км 10/10 600 м
[Sc]
0.0 -2.2 85 -2 -2 по сезону 1018.2 933.1
03 10.12 ЮВ 1 4000 м 10/10 300 м
[Sc]
-1.9 -3.6 88 -4 -4 по сезону 1017.5 931.9 -1.9
06 10.12 Ю 1 4000 м дымка 10/10 300 м
[St]
-1.1 -2.9 88 -3 -3 по сезону 1017.2 931.9 -2.4
09 10.12 штиль 0 10 км 10/6 300 м
[Sc Ac As]
+1.2 -1.6 82 0 +1 по сезону 1014.8 930.4
12 10.12 С 1 10 км 10/10 300 м
[Sc]
+1.0 -1.5 83 -1 -1 по сезону 1014.6 930.2
15 10.12 З 1 1000 м дымка 10/10 300 м
[St]
+0.1 -1.7 88 -2 -2 по сезону 1014.6 929.9 +2.8
18 10.12 штиль 0 1000 м дымка 10/10 300 м
[St]
-0.2 -2.1 87 -1 -1 по сезону 1014.1 929.3
21 10.12 штиль 0 1000 м дымка 10/10 300 м
[St]
-0.6 -2.1 90 -2 -2 по сезону 1014.4 929.5
00 11.12 ЮВ 1 10 км ясно -1.3 -3.2 87 -3 -3 по сезону 1014.0 928.9
03 11.12 штиль 0 500 м туман ?/? -1.8 -2.9 92 -3 -3 по сезону 1014.2 928.9 -1.9
06 11.12 ЮВ 1 20 км {туман} 3/0
[Ac trans]
+0.5 -2.0 83 -1 -0 по сезону 1012.3 927.9 -2.3
09 11.12 В 2 20 км 8/5 1000 м
[Cu hum Ac trans]
+3.4 -0.5 76 +1 +2 по сезону 1007.8 924.6
12 11.12 С 1 2000 м 10/10 600 м
[Cb calv]
+3.5 +0.3 80 +2 +2 по сезону 1006.0 923.0
15 11.12 Ю 4 10 км 8/3 600 м
[Sc Ac trans]
+14.6 -1.5 33 +14 +14 тепло 1000.9 921.3 +15.1
18 11.12 В 1 10 км в посл. час туман 6/3 600 м
[Sc Ac trans]
+1.0 +0.1 94 -1 -1 по сезону 1012.3 928.1
21 11.12 ЮВ 3 10 км 4/0
[Sc Ac trans]
+9.2 -0.1 52 +7 +7 тепло 1007.8 926.2
00 12.12 ЮЗ 1 10 км в посл. час туман ясно +1.5 -0.5 87 -0 -0 по сезону 1012.2 928.1
03 12.12 ЮВ 1 10 км ясно +1.8 -0.9 82 0 0 по сезону 1012.4 928.4 +0.3
06 12.12 ЮЗ 1 20 км 10/10 600 м
[Sc]
+3.1 -0.1 79 +2 +2 тепло 1012.4 928.8
09 12.12 В 1 20 км 10/0
[Ac As]
+5.5 +0.9 72 +5 +6 тепло 1009.3 926.6
12 12.12 штиль 0 20 км 10/0
[Ac As]
+5.6 +1.1 73 +5 +5 тепло 1007.5 925.0
15 12.12 СЗ 1 10 км {ливн. осадки} 10/10 300 м
[Sc diur, vesp]
+2.9 +0.6 85 +1 +1 по сезону 1009.9 926.4 +6.8 0.0
18 12.12 СЗ 1 200 м туман ?/? +1.6 +0.4 92 -0 -0 по сезону 1011.1 927.1
21 12.12 З 1 500 м слабый дождь {туман} 10/0
[As op]
+1.3 +0.3 93 -1 -1 по сезону 1012.1 928.0
00 13.12 З 3 500 м туман {дождь} ?/? +1.9 +0.8 92 -3 -3 по сезону 1014.5 930.4
03 13.12 З 3 1000 м ливневой снег {дождь} 10/10 300 м
[Cb cap]
0.0 -1.0 93 -5 -5 по сезону 1017.7 932.7 0.0 4 1
06 13.12 штиль 0 2000 м слабый ливневой дождь 10/10 300 м
[Cb cap]
+0.1 -0.9 93 -1 -1 по сезону 1019.8 934.7 -0.2
09 13.12 Ю 1 10 км {ливн. осадки} 9/9 600 м
[Sc]
+1.3 -0.9 85 -1 -0 по сезону 1019.7 934.9
12 13.12 Ю 1 20 км {ливн. осадки} 10/10 600 м
[Sc]
+3.3 0.0 79 +2 +2 по сезону 1019.6 935.4
15 13.12 З 1 10 км 9/9 600 м
[Sc]
+2.1 -0.1 85 0 0 по сезону 1022.0 937.2 +3.5 2
18 13.12 штиль 0 10 км 5/5 300 м
[Sc]
-1.3 -2.6 91 -3 -3 по сезону 1024.7 938.7
21 13.12 штиль 0 10 км 6/4 600 м
[Sc Ac As]
-1.9 -3.2 91 -3 -3 по сезону 1025.6 939.4
00 14.12 штиль 0 10 км ясно -2.8 -4.4 89 -4 -4 по сезону 1026.2 939.6
03 14.12 Ю 1 10 км ясно -3.2 -5.0 87 -5 -5 по сезону 1026.1 939.4 -3.4
06 14.12 штиль 0 50 км 3/0
[Ac trans Ci fib]
-0.4 -3.8 78 -1 -0 по сезону 1026.8 940.9 -3.7
09 14.12 В 1 50 км 6/0
[Ac As Cc]
+3.1 -4.3 58 +2 +5 по сезону 1024.1 939.5
12 14.12 штиль 0 50 км 6/0
[Ac As Cs]
+3.5 -4.3 57 +3 +4 по сезону 1023.4 938.9
15 14.12 штиль 0 10 км 3/0
[Ac trans]
-0.7 -3.9 79 -2 -2 по сезону 1027.0 941.0 +4.9
18 14.12 Ю 1 10 км ясно -2.1 -4.6 83 -4 -4 по сезону 1027.8 941.3
21 14.12 Ю 1 10 км ясно -2.6 -5.5 80 -5 -5 по сезону 1028.2 941.5
00 15.12 Ю 1 10 км ясно -3.6 -6.8 78 -6 -6 по сезону 1029.1 942.0
03 15.12 Ю 1 10 км ясно -3.7 -8.2 71 -6 -6 по сезону 1029.4 942.2 -4.2
06 15.12 Ю 1 20 км 1/0
[Ci fib]
-1.2 -8.6 57 -3 -2 по сезону 1029.2 942.8 -4.4
09 15.12 З 1 50 км 3/0
[Ci fib]
+5.7 -9.1 34 +5 +9 тепло 1026.3 942.1
12 15.12 СВ 1 20 км 8/0
[Ac und Ci]
+5.3 -6.9 41 +5 +6 тепло 1026.5 942.2
15 15.12 ЮВ 1 10 км 8/0
[Ac und]
+1.0 -5.6 61 -0 -0 по сезону 1027.7 942.1 +6.8
18 15.12 Ю 1 10 км 3/0
[Ac und]
+0.1 -7.5 57 -1 -1 по сезону 1027.1 941.3
21 15.12 Ю 1 10 км ясно -1.1 -8.5 57 -3 -3 по сезону 1027.0 940.8
00 16.12 З 1 10 км 8/0
[Ac und]
-1.0 -6.4 67 -3 -3 по сезону 1029.1 942.8
03 16.12 штиль 0 10 км 8/0
[Ac und]
-1.2 -5.0 75 -2 -2 по сезону 1030.7 944.2 -2.1

 

Местоположение метеостанции Владикавказ (Северная Осетия, Россия): широта 43.03 долгота 44.68 высота над уровнем моря 703 м.

В архиве по умолчанию представлена погода в Владикавказе за последнюю неделю. Архивные данные за месяц целиком и за предыдущие месяцы, начиная с января 2011 года, Вы можете получить, выбрав интересующий диапазон дат из раскрывающегося списка и нажав кнопку "Ввод!".


*Определитесь, кто Вы:
робот инопланетянин человек

Внимание! Время в таблицах - всемирное. Для получения местного времени необходимо прибавить поправку, которая в Владикавказе равна 3 ч.

Смотрите также архив погоды в соседних городах и на ближайших метеорологических станциях:

Погода в Назрани (Ингушетия, Россия) (19 км)
Погода в Алагире (Северная Осетия, Россия) (35 км)
Погода в Рокском Перевале (Северная Осетия, Россия) (66 км)
Погода в Наре (Северная Осетия, Россия) (68 км)
Погода в ?????????? (Грузия) (76 км)
Погода в Моздоке (Северная Осетия, Россия) (78 км)
Погода в Шатое (Чечня, Россия) (83 км)
Погода в Наурской (Чечня, Россия) (86 км)
Погода в Грозном (Чечня, Россия) (88 км)
Погода в Прохладный (Кабардино-Балкария, Россия) (95 км)

Пояснения к столбцам:

Ветер - указаны скорость ветра в м/с - средняя за 10 мин, порывы в срок и между сроками (в фигурных скобках) и направление, откуда дует ветер: С - северный, СВ - северо-восточный, В - восточный, ЮВ - юго-восточный, Ю - южный, ЮЗ - юго-западный, З - западный, СЗ - северо-западный.
Видимость - горизонтальная дальность видимости в метрах или километрах. При видимости от 1 до 10 км при отсутствии осадков обычно наблюдается дымка, при ухудшении видимости до 1 км и менее - туман. В сухую погоду видимость может ухудшаться дымом, пылью или мглою.
Явления - указаны атмосферные явления, наблюдавшиеся в срок или в последний час перед сроком; фигурными скобками обозначены явления, наблюдавшиеся между сроками (за 1-3 часа до срока); квадратными скобками обозначены град или гололедные отложения с указанием их диаметра в мм.
Облачность - указаны через наклонную черту общая и нижняя облачность в баллах и высота нижней границы облаков в метрах; квадратными скобками обозначены формы облаков: Ci - перистые, Cs - перисто-слоистые, Cc - перисто-кучевые, Ac - высококучевые, As - высокослоистые, Sc - слоисто-кучевые, Ns - слоисто-дождевые, Cu - кучевые, Cb - кучево-дождевые. Подробнее классификацию облаков см. в Атласе облаков (PDF).
T - Температура воздуха - температура, измеренная на высоте 2 м над землей.
Td - Температура точки росы - температура, при понижении до которой содержащийся в воздухе водяной пар достигнет насыщения.
f - Относительная влажность воздуха - влажноcть воздуха, измеренная на высоте 2 м над землей.
Te - Эффективная температура - температура, которую ощущает одетый по сезону человек в тени. Характеристика душности погоды. При расчете учитывается влияние влажности воздуха и скорости ветра на теплоощущения человека.
Tes - Эффективная температура на солнце - температура, которую ощущает человек, с поправкой на солнечный нагрев. Характеристика знойности погоды. Зависит от высоты солнца над горизонтом, облачности и скорости ветра. Ночью, в пасмурную погоду, а также при ветре 12 м/с и более поправка равна нулю.
P - Атмосферное давление - приведенное к уровню моря атмосферное давление.
Po - Атмосферное давление - измеренное на уровне метеостанции атмосферное давление.
Tmin - Минимальная температура - минимум температуры воздуха на высоте 2 м над землей.
Tmax - Максимальная температура - максимум температуры воздуха на высоте 2 м над землей.
R - Количество осадков - Количество выпавших осадков за период времени, мм. При наведении курсора мыши на число - период времени, за который выпало указанное количество осадков.
R24 - Количество осадков - Количество выпавших осадков за 24 часа, мм.
S - Снежный покров - Высота снежного покрова, см. При наведении курсора мыши на число - состояние снежного покрова и степень покрытия местности в баллах.